Time,TemperatureF,DewpointF,PressureIn,WindDirection,WindDirectionDegrees,WindSpeedMPH,WindSpeedGustMPH,Humidity,HourlyPrecipIn,Conditions,Clouds,dailyrainin,SoftwareType,DateUTC
2013-04-24 00:23:00,44.0,40.0,30.04,South,173,6.0,-999.0,86,-99.99,,,-99.99,,2013-04-24 04:23:00,
2013-04-24 00:33:00,45.0,41.0,30.05,South,188,5.0,-999.0,86,-99.99,,,-99.99,,2013-04-24 04:33:00,
2013-04-24 00:43:00,45.0,41.0,30.05,South,188,5.0,-999.0,86,-99.99,,,-99.99,,2013-04-24 04:43:00,
2013-04-24 00:53:00,45.0,41.0,30.04,South,171,6.0,-999.0,86,-99.99,,,-99.99,,2013-04-24 04:53:00,
2013-04-24 01:02:00,45.0,41.0,30.03,WSW,248,6.0,-999.0,86,-99.99,,,-99.99,,2013-04-24 05:02:00,
2013-04-24 01:13:00,45.0,41.0,30.03,WSW,248,6.0,-999.0,86,-99.99,,,-99.99,,2013-04-24 05:13:00,
2013-04-24 01:22:00,44.0,41.0,30.03,South,186,5.0,-999.0,88,-99.99,,,-99.99,,2013-04-24 05:22:00,
2013-04-24 01:32:00,44.0,41.0,30.03,WSW,247,8.0,-999.0,88,-99.99,,,-99.99,,2013-04-24 05:32:00,
2013-04-24 01:42:00,44.0,41.0,30.03,WSW,247,8.0,-999.0,88,-99.99,,,-99.99,,2013-04-24 05:42:00,
2013-04-24 01:52:00,44.0,41.0,30.02,South,178,7.0,-999.0,88,-99.99,,,-99.99,,2013-04-24 05:52:00,
2013-04-24 02:02:00,45.0,42.0,30.01,SSW,193,6.0,-999.0,88,-99.99,,,-99.99,,2013-04-24 06:02:00,
2013-04-24 02:12:00,45.0,42.0,30.01,SSW,193,6.0,-999.0,88,-99.99,,,-99.99,,2013-04-24 06:12:00,
2013-04-24 02:22:00,44.0,41.0,30.01,South,169,7.0,-999.0,88,-99.99,,,-99.99,,2013-04-24 06:22:00,
2013-04-24 02:33:00,45.0,42.0,30.00,SSW,209,8.0,-999.0,89,-99.99,,,-99.99,,2013-04-24 06:33:00,
2013-04-24 02:42:00,45.0,42.0,30.00,SSW,209,8.0,-999.0,89,-99.99,,,-99.99,,2013-04-24 06:42:00,
2013-04-24 02:52:00,44.0,41.0,29.99,SSW,202,8.0,-999.0,89,-99.99,,,-99.99,,2013-04-24 06:52:00,
2013-04-24 03:02:00,45.0,42.0,29.99,South,184,9.0,-999.0,88,-99.99,,,-99.99,,2013-04-24 07:02:00,
2013-04-24 03:11:00,45.0,42.0,29.99,South,184,9.0,-999.0,88,-99.99,,,-99.99,,2013-04-24 07:11:00,
2013-04-24 03:22:00,45.0,41.0,29.99,SSW,195,8.0,-999.0,87,-99.99,,,-99.99,,2013-04-24 07:22:00,
2013-04-24 03:32:00,45.0,41.0,29.98,SSW,206,7.0,-999.0,86,-99.99,,,-99.99,,2013-04-24 07:32:00,
2013-04-24 03:42:00,45.0,41.0,29.98,SSW,206,7.0,-999.0,86,-99.99,,,-99.99,,2013-04-24 07:42:00,
2013-04-24 03:52:00,45.0,41.0,29.98,SW,217,8.0,-999.0,86,-99.99,,,-99.99,,2013-04-24 07:52:00,
2013-04-24 04:02:00,45.0,41.0,29.98,SW,218,9.0,-999.0,86,-99.99,,,-99.99,,2013-04-24 08:02:00,
2013-04-24 04:12:00,45.0,41.0,29.98,SW,218,9.0,-999.0,86,-99.99,,,-99.99,,2013-04-24 08:12:00,
2013-04-24 04:21:00,45.0,41.0,29.98,SSW,212,8.0,-999.0,86,-99.99,,,-99.99,,2013-04-24 08:21:00,
2013-04-24 04:33:00,45.0,41.0,29.97,SSW,210,10.0,-999.0,85,-99.99,,,-99.99,,2013-04-24 08:33:00,
2013-04-24 04:42:00,45.0,41.0,29.97,SSW,210,10.0,-999.0,85,-99.99,,,-99.99,,2013-04-24 08:42:00,
2013-04-24 04:52:00,45.0,41.0,29.98,SW,228,10.0,-999.0,87,-99.99,,,-99.99,,2013-04-24 08:52:00,
2013-04-24 05:02:00,45.0,41.0,29.98,SSW,210,10.0,-999.0,87,-99.99,,,-99.99,,2013-04-24 09:02:00,
2013-04-24 05:11:00,45.0,41.0,29.98,SSW,210,10.0,-999.0,87,-99.99,,,-99.99,,2013-04-24 09:11:00,
2013-04-24 05:21:00,45.0,41.0,29.98,WSW,239,10.0,-999.0,86,-99.99,,,-99.99,,2013-04-24 09:21:00,
2013-04-24 05:33:00,45.0,41.0,29.98,SW,225,9.0,-999.0,86,-99.99,,,-99.99,,2013-04-24 09:33:00,
2013-04-24 05:42:00,45.0,41.0,29.98,SW,225,9.0,-999.0,86,-99.99,,,-99.99,,2013-04-24 09:42:00,
2013-04-24 05:53:00,45.0,41.0,29.97,SSW,211,10.0,-999.0,85,-99.99,,,-99.99,,2013-04-24 09:53:00,
2013-04-24 06:02:00,45.0,41.0,29.97,SW,223,11.0,-999.0,85,-99.99,,,-99.99,,2013-04-24 10:02:00,
2013-04-24 06:12:00,45.0,41.0,29.97,SW,223,11.0,-999.0,85,-99.99,,,-99.99,,2013-04-24 10:12:00,
2013-04-24 06:23:00,45.0,40.0,29.97,SSW,213,10.0,-999.0,84,-99.99,,,-99.99,,2013-04-24 10:23:00,
2013-04-24 06:33:00,45.0,41.0,29.97,SW,217,10.0,-999.0,85,-99.99,,,-99.99,,2013-04-24 10:33:00,
2013-04-24 06:42:00,45.0,41.0,29.97,SW,217,10.0,-999.0,85,-99.99,,,-99.99,,2013-04-24 10:42:00,
2013-04-24 06:53:00,45.0,41.0,29.97,SW,217,11.0,-999.0,85,-99.99,,,-99.99,,2013-04-24 10:53:00,
2013-04-24 07:02:00,45.0,41.0,29.97,SW,224,10.0,-999.0,85,-99.99,,,-99.99,,2013-04-24 11:02:00,
2013-04-24 07:11:00,45.0,41.0,29.97,SW,224,10.0,-999.0,85,-99.99,,,-99.99,,2013-04-24 11:11:00,
2013-04-24 07:21:00,45.0,41.0,29.96,WSW,242,9.0,-999.0,85,-99.99,,,-99.99,,2013-04-24 11:21:00,
2013-04-24 07:32:00,46.0,42.0,29.96,West,269,10.0,-999.0,85,-99.99,,,-99.99,,2013-04-24 11:32:00,
2013-04-24 07:42:00,46.0,42.0,29.96,West,269,10.0,-999.0,85,-99.99,,,-99.99,,2013-04-24 11:42:00,
2013-04-24 07:53:00,46.0,42.0,29.96,WSW,239,9.0,-999.0,85,-99.99,,,-99.99,,2013-04-24 11:53:00,
2013-04-24 08:02:00,47.0,43.0,29.97,SW,221,9.0,-999.0,86,-99.99,,,-99.99,,2013-04-24 12:02:00,
2013-04-24 08:11:00,47.0,43.0,29.97,SW,221,9.0,-999.0,86,-99.99,,,-99.99,,2013-04-24 12:11:00,
2013-04-24 08:22:00,47.0,43.0,29.97,SW,223,9.0,-999.0,85,-99.99,,,-99.99,,2013-04-24 12:22:00,
2013-04-24 08:32:00,47.0,43.0,29.96,SW,221,8.0,-999.0,85,-99.99,,,-99.99,,2013-04-24 12:32:00,
2013-04-24 08:42:00,47.0,43.0,29.96,SW,221,8.0,-999.0,85,-99.99,,,-99.99,,2013-04-24 12:42:00,
2013-04-24 08:52:00,48.0,43.0,29.96,SW,219,7.0,-999.0,83,-99.99,,,-99.99,,2013-04-24 12:52:00,
2013-04-24 09:01:00,49.0,43.0,29.95,SW,231,5.0,-999.0,81,-99.99,,,-99.99,,2013-04-24 13:01:00,
2013-04-24 09:12:00,49.0,43.0,29.95,SW,231,5.0,-999.0,81,-99.99,,,-99.99,,2013-04-24 13:12:00,
2013-04-24 09:22:00,51.0,44.0,29.94,SSW,205,5.0,-999.0,78,-99.99,,,-99.99,,2013-04-24 13:22:00,
2013-04-24 09:32:00,52.0,45.0,29.95,SSW,209,6.0,-999.0,76,-99.99,,,-99.99,,2013-04-24 13:32:00,
2013-04-24 09:41:00,52.0,45.0,29.95,SSW,209,6.0,-999.0,76,-99.99,,,-99.99,,2013-04-24 13:41:00,
2013-04-24 09:52:00,53.0,45.0,29.94,SSW,205,5.0,-999.0,75,-99.99,,,-99.99,,2013-04-24 13:52:00,
2013-04-24 10:01:00,54.0,45.0,29.93,South,191,5.0,-999.0,71,-99.99,,,-99.99,,2013-04-24 14:01:00,
2013-04-24 10:11:00,54.0,45.0,29.93,South,191,5.0,-999.0,71,-99.99,,,-99.99,,2013-04-24 14:11:00,
2013-04-24 10:21:00,55.0,45.0,29.93,South,186,6.0,-999.0,70,-99.99,,,-99.99,,2013-04-24 14:21:00,
2013-04-24 10:32:00,56.0,46.0,29.92,South,183,6.0,-999.0,69,-99.99,,,-99.99,,2013-04-24 14:32:00,
2013-04-24 10:41:00,56.0,46.0,29.92,South,183,6.0,-999.0,69,-99.99,,,-99.99,,2013-04-24 14:41:00,
2013-04-24 10:52:00,57.0,46.0,29.91,SSW,200,7.0,-999.0,67,-99.99,,,-99.99,,2013-04-24 14:52:00,
2013-04-24 11:01:00,58.0,46.0,29.91,SSW,196,6.0,-999.0,65,-99.99,,,-99.99,,2013-04-24 15:01:00,
2013-04-24 11:11:00,58.0,46.0,29.91,SSW,196,6.0,-999.0,65,-99.99,,,-99.99,,2013-04-24 15:11:00,
2013-04-24 11:22:00,58.0,45.0,29.90,South,179,4.0,-999.0,63,-99.99,,,-99.99,,2013-04-24 15:22:00,
2013-04-24 11:33:00,57.0,45.0,29.90,SSW,192,4.0,-999.0,64,-99.99,,,-99.99,,2013-04-24 15:33:00,
2013-04-24 11:43:00,57.0,45.0,29.90,SSW,192,4.0,-999.0,64,-99.99,,,-99.99,,2013-04-24 15:43:00,
2013-04-24 11:53:00,58.0,46.0,29.90,SSW,211,4.0,-999.0,65,-99.99,,,-99.99,,2013-04-24 15:53:00,
2013-04-24 12:03:00,60.0,46.0,29.89,SSW,208,6.0,-999.0,60,-99.99,,,-99.99,,2013-04-24 16:03:00,
2013-04-24 12:12:00,60.0,46.0,29.89,SSW,208,6.0,-999.0,60,-99.99,,,-99.99,,2013-04-24 16:12:00,
2013-04-24 12:23:00,62.0,47.0,29.88,WSW,252,6.0,-999.0,57,-99.99,,,-99.99,,2013-04-24 16:23:00,
2013-04-24 12:32:00,61.0,46.0,29.87,SSW,192,9.0,-999.0,58,-99.99,,,-99.99,,2013-04-24 16:32:00,
2013-04-24 12:42:00,61.0,46.0,29.87,SSW,192,9.0,-999.0,58,-99.99,,,-99.99,,2013-04-24 16:42:00,
2013-04-24 12:53:00,61.0,46.0,29.87,South,171,8.0,-999.0,58,-99.99,,,-99.99,,2013-04-24 16:53:00,
2013-04-24 13:02:00,63.0,47.0,29.88,SW,227,7.0,-999.0,55,-99.99,,,-99.99,,2013-04-24 17:02:00,
2013-04-24 13:12:00,63.0,47.0,29.88,SW,227,7.0,-999.0,55,-99.99,,,-99.99,,2013-04-24 17:12:00,
2013-04-24 13:22:00,64.0,45.0,29.88,South,191,8.0,-999.0,51,-99.99,,,-99.99,,2013-04-24 17:22:00,
2013-04-24 13:32:00,63.0,45.0,29.88,SE,132,12.0,-999.0,52,-99.99,,,-99.99,,2013-04-24 17:32:00,
2013-04-24 13:42:00,63.0,45.0,29.88,SE,132,12.0,-999.0,52,-99.99,,,-99.99,,2013-04-24 17:42:00,
2013-04-24 13:52:00,62.0,45.0,29.86,SW,217,12.0,-999.0,53,-99.99,,,-99.99,,2013-04-24 17:52:00,
2013-04-24 14:02:00,65.0,46.0,29.86,WSW,239,12.0,-999.0,50,-99.99,,,-99.99,,2013-04-24 18:02:00,
2013-04-24 14:12:00,65.0,46.0,29.86,WSW,239,12.0,-999.0,50,-99.99,,,-99.99,,2013-04-24 18:12:00,
2013-04-24 14:22:00,62.0,45.0,29.86,South,189,12.0,-999.0,54,-99.99,,,-99.99,,2013-04-24 18:22:00,
2013-04-24 14:33:00,63.0,46.0,29.85,SSW,205,12.0,-999.0,54,-99.99,,,-99.99,,2013-04-24 18:33:00,
2013-04-24 14:42:00,63.0,46.0,29.85,SSW,205,12.0,-999.0,54,-99.99,,,-99.99,,2013-04-24 18:42:00,
2013-04-24 14:52:00,64.0,45.0,29.85,SSW,208,13.0,-999.0,50,-99.99,,,-99.99,,2013-04-24 18:52:00,
2013-04-24 15:02:00,63.0,46.0,29.85,SSW,209,12.0,-999.0,53,-99.99,,,-99.99,,2013-04-24 19:02:00,
2013-04-24 15:11:00,63.0,46.0,29.85,SSW,209,12.0,-999.0,53,-99.99,,,-99.99,,2013-04-24 19:11:00,
2013-04-24 15:22:00,64.0,47.0,29.85,SSW,211,12.0,-999.0,54,-99.99,,,-99.99,,2013-04-24 19:22:00,
2013-04-24 15:32:00,64.0,47.0,29.83,SW,223,12.0,-999.0,54,-99.99,,,-99.99,,2013-04-24 19:32:00,
2013-04-24 15:42:00,64.0,47.0,29.83,SW,223,12.0,-999.0,54,-99.99,,,-99.99,,2013-04-24 19:42:00,
2013-04-24 15:52:00,62.0,47.0,29.83,SSW,205,11.0,-999.0,58,-99.99,,,-99.99,,2013-04-24 19:52:00,
2013-04-24 16:02:00,63.0,48.0,29.82,SSW,203,12.0,-999.0,57,-99.99,,,-99.99,,2013-04-24 20:02:00,
2013-04-24 16:11:00,63.0,48.0,29.82,SSW,203,12.0,-999.0,57,-99.99,,,-99.99,,2013-04-24 20:11:00,
2013-04-24 16:22:00,63.0,48.0,29.82,SW,222,13.0,-999.0,57,-99.99,,,-99.99,,2013-04-24 20:22:00,
2013-04-24 16:32:00,62.0,49.0,29.81,South,180,9.0,-999.0,62,-99.99,,,-99.99,,2013-04-24 20:32:00,
2013-04-24 16:42:00,62.0,49.0,29.81,South,180,9.0,-999.0,62,-99.99,,,-99.99,,2013-04-24 20:42:00,
2013-04-24 16:52:00,57.0,49.0,29.81,SW,221,10.0,-999.0,75,-99.99,,,-99.99,,2013-04-24 20:52:00,
2013-04-24 17:02:00,58.0,49.0,29.81,SSW,202,11.0,-999.0,72,-99.99,,,-99.99,,2013-04-24 21:02:00,
2013-04-24 17:11:00,58.0,49.0,29.81,SSW,202,11.0,-999.0,72,-99.99,,,-99.99,,2013-04-24 21:11:00,
2013-04-24 17:22:00,59.0,46.0,29.80,SW,231,14.0,-999.0,63,-99.99,,,-99.99,,2013-04-24 21:22:00,
2013-04-24 17:33:00,52.0,48.0,29.83,SW,236,18.0,-999.0,87,-99.99,,,-99.99,,2013-04-24 21:33:00,
2013-04-24 17:42:00,52.0,48.0,29.83,SW,236,18.0,-999.0,87,-99.99,,,-99.99,,2013-04-24 21:42:00,
2013-04-24 17:53:00,49.0,45.0,29.84,SSW,213,18.0,-999.0,85,-99.99,,,-99.99,,2013-04-24 21:53:00,
2013-04-24 18:03:00,48.0,44.0,29.84,SW,232,19.0,-999.0,85,-99.99,,,-99.99,,2013-04-24 22:03:00,
2013-04-24 18:12:00,48.0,44.0,29.84,SW,232,19.0,-999.0,85,-99.99,,,-99.99,,2013-04-24 22:12:00,
2013-04-24 18:22:00,49.0,46.0,29.83,WSW,239,17.0,-999.0,89,-99.99,,,-99.99,,2013-04-24 22:22:00,
2013-04-24 18:33:00,50.0,47.0,29.84,SSW,198,17.0,-999.0,90,-99.99,,,-99.99,,2013-04-24 22:33:00,
2013-04-24 18:42:00,50.0,47.0,29.84,SSW,198,17.0,-999.0,90,-99.99,,,-99.99,,2013-04-24 22:42:00,
2013-04-24 18:52:00,51.0,48.0,29.83,SW,228,15.0,-999.0,90,-99.99,,,-99.99,,2013-04-24 22:52:00,
2013-04-24 19:02:00,49.0,46.0,29.83,WSW,242,17.0,-999.0,90,-99.99,,,-99.99,,2013-04-24 23:02:00,
2013-04-24 19:12:00,49.0,46.0,29.83,WSW,242,17.0,-999.0,90,-99.99,,,-99.99,,2013-04-24 23:12:00,
2013-04-24 19:21:00,49.0,46.0,29.83,WSW,242,21.0,-999.0,90,-99.99,,,-99.99,,2013-04-24 23:21:00,
2013-04-24 19:32:00,49.0,46.0,29.84,SW,234,21.0,-999.0,91,-99.99,,,-99.99,,2013-04-24 23:32:00,
2013-04-24 19:42:00,49.0,46.0,29.84,SW,234,21.0,-999.0,91,-99.99,,,-99.99,,2013-04-24 23:42:00,
2013-04-24 19:52:00,49.0,46.0,29.83,SW,223,22.0,-999.0,91,-99.99,,,-99.99,,2013-04-24 23:52:00,
2013-04-24 20:02:00,48.0,45.0,29.84,WSW,246,19.0,-999.0,91,-99.99,,,-99.99,,2013-04-25 00:02:00,
2013-04-24 20:12:00,48.0,45.0,29.84,WSW,246,19.0,-999.0,91,-99.99,,,-99.99,,2013-04-25 00:12:00,
2013-04-24 20:22:00,48.0,45.0,29.85,SW,234,16.0,-999.0,91,-99.99,,,-99.99,,2013-04-25 00:22:00,
2013-04-24 20:32:00,47.0,43.0,29.86,WNW,284,13.0,-999.0,85,-99.99,,,-99.99,,2013-04-25 00:32:00,
2013-04-24 20:42:00,47.0,43.0,29.86,WNW,284,13.0,-999.0,85,-99.99,,,-99.99,,2013-04-25 00:42:00,
2013-04-24 20:52:00,44.0,39.0,29.88,WSW,248,13.0,-999.0,83,-99.99,,,-99.99,,2013-04-25 00:52:00,
2013-04-24 21:02:00,43.0,37.0,29.89,WNW,300,12.0,-999.0,80,-99.99,,,-99.99,,2013-04-25 01:02:00,
2013-04-24 21:11:00,43.0,37.0,29.89,WNW,300,12.0,-999.0,80,-99.99,,,-99.99,,2013-04-25 01:11:00,
2013-04-24 21:23:00,41.0,36.0,29.90,WSW,253,13.0,-999.0,83,-99.99,,,-99.99,,2013-04-25 01:23:00,
2013-04-24 21:32:00,40.0,34.0,29.92,West,259,13.0,-999.0,79,-99.99,,,-99.99,,2013-04-25 01:32:00,
2013-04-24 21:42:00,40.0,34.0,29.92,West,259,13.0,-999.0,79,-99.99,,,-99.99,,2013-04-25 01:42:00,
2013-04-24 21:52:00,38.0,32.0,29.93,WSW,241,15.0,-999.0,80,-99.99,,,-99.99,,2013-04-25 01:52:00,
2013-04-24 22:02:00,37.0,31.0,29.94,West,260,15.0,-999.0,78,-99.99,,,-99.99,,2013-04-25 02:02:00,
2013-04-24 22:11:00,37.0,31.0,29.94,West,260,15.0,-999.0,78,-99.99,,,-99.99,,2013-04-25 02:11:00,
2013-04-24 22:22:00,37.0,30.0,29.94,WSW,257,16.0,-999.0,77,-99.99,,,-99.99,,2013-04-25 02:22:00,
2013-04-24 22:32:00,36.0,29.0,29.95,WSW,246,19.0,-999.0,77,-99.99,,,-99.99,,2013-04-25 02:32:00,
2013-04-24 22:42:00,36.0,29.0,29.95,WSW,246,19.0,-999.0,77,-99.99,,,-99.99,,2013-04-25 02:42:00,
2013-04-24 22:52:00,36.0,29.0,29.95,WSW,246,19.0,-999.0,77,-99.99,,,-99.99,,2013-04-25 02:52:00,
2013-04-24 23:02:00,34.0,28.0,29.96,West,281,15.0,-999.0,77,-99.99,,,-99.99,,2013-04-25 03:02:00,
2013-04-24 23:11:00,34.0,28.0,29.96,West,281,15.0,-999.0,77,-99.99,,,-99.99,,2013-04-25 03:11:00,
2013-04-24 23:22:00,33.0,27.0,29.97,SW,222,14.0,-999.0,77,-99.99,,,-99.99,,2013-04-25 03:22:00,
2013-04-24 23:33:00,33.0,26.0,29.98,WSW,252,14.0,-999.0,76,-99.99,,,-99.99,,2013-04-25 03:33:00,
2013-04-24 23:43:00,33.0,26.0,29.98,WSW,252,14.0,-999.0,76,-99.99,,,-99.99,,2013-04-25 03:43:00,
2013-04-24 23:52:00,32.0,25.0,29.97,WSW,254,12.0,-999.0,76,-99.99,,,-99.99,,2013-04-25 03:52:00,